Terminal Aerodrome Forecast
Issued by NWS

Home | Current Version | Previous Version | Text Only | Print | Product List | Glossary On
Versions: 1 2 3 4 5 6 7 8 9 10 11 12 13 14 15 16 17 18 19 20 21
000
FTUS42 KFFC 051127
TAFPDK
TAF
KPDK 051127Z 0512/0612 26007KT 6SM -RA OVC008
     FM051400 29010G15KT 5SM -RA OVC008
     FM052100 31010G20KT P6SM VCSH OVC012
     FM060100 34008KT P6SM OVC025
     FM061000 01007KT P6SM BKN025=

USA.gov is the U.S. government's official web portal to all federal, state and local government web resources and services.